Wind_Speed
11 11 10 10 10 11 11 11 10 11 11 11 11 10 10 10 10 10 10 11 10 10 11 11 11 11 11 10 11 11 11 11 11 11 11 12 12 12 11 11 11 11 11 11
12 11 11 11 11 12 12 11 11 12 12 12 11 11 11 11 11 11 11 11 11 11 11 12 12 11 11 11 11 12 12 12 12 12 12 12 12 12 12 12 12 12 12 12
13 11 12 12 12 12 13 12 12 12 13 13 13 12 12 12 12 12 12 12 12 11 12 12 12 12 12 12 12 13 12 12 12 13 12 13 13 12 12 12 12 12 12 12
13 13 13 13 13 13 13 13 13 13 14 13 13 13 12 13 13 13 13 13 13 13 13 13 13 13 13 13 13 14 14 14 13 13 13 13 12 12 12 12 12 13 13 13
15 14 13 13 13 14 14 14 14 14 15 14 14 14 13 13 14 14 13 14 14 14 14 14 14 14 14 14 14 14 14 14 14 14 14 14 14 13 13 13 14 14 14 14
15 15 14 14 14 14 14 15 15 15 15 14 13 14 12 12 13 13 13 13 13 13 14 14 14 14 14 14 15 15 14 14 15 15 14 14 15 15 15 15 15 15 15 15
16 16 15 15 15 15 15 16 16 15 15 14 13 14 12 12 12 12 13 13 13 13 13 13 14 14 14 14 14 14 15 15 15 15 15 16 16 16 16 16 16 16 17 16
17 16 16 16 16 16 16 16 16 15 15 13 13 13 12 12 12 12 13 13 13 13 13 14 14 14 14 14 14 14 15 15 16 16 17 17 17 17 17 17 17 18 18 18
17 17 17 16 16 16 16 15 15 15 15 13 13 13 12 12 12 13 13 14 14 13 14 14 14 14 14 15 15 15 16 16 16 17 18 19 18 18 18 18 19 19 19 20
18 17 16 16 17 16 16 16 16 16 16 15 14 13 13 13 13 13 14 14 14 14 14 14 14 15 15 16 16 16 17 17 17 18 18 19 19 19 20 20 20 20 20 21
18 18 16 17 17 16 16 17 17 17 17 18 17 15 14 14 15 15 15 16 15 15 16 16 16 16 16 17 17 17 17 18 18 18 19 20 20 20 20 21 21 22 22 22
18 18 18 18 17 17 18 18 18 19 19 19 19 17 16 16 16 17 17 17 17 17 17 17 17 17 17 18 18 18 19 19 19 19 20 21 21 21 21 22 22 23 23 23
18 20 19 19 19 19 19 19 20 20 20 21 20 18 18 18 18 18 18 18 18 18 18 18 18 19 19 19 19 19 19 20 20 21 21 21 22 22 23 23 23 24 24 24
19 20 20 20 19 20 20 20 21 22 21 21 20 19 19 19 19 19 19 19 19 19 19 19 19 19 20 20 20 20 20 20 21 22 22 23 23 23 24 24 25 25 25 25
19 20 21 21 20 20 20 21 22 22 22 22 20 20 19 19 20 20 19 19 19 19 19 19 20 20 20 21 21 21 21 21 22 23 24 24 24 25 25 25 26 26 26 25
20 21 22 22 22 22 22 21 21 22 22 22 21 21 20 20 21 21 20 20 20 21 21 21 21 22 22 22 22 22 22 22 23 24 25 25 25 26 26 26 27 27 27 27
22 22 23 23 23 23 23 21 21 22 22 23 23 22 22 21 21 22 22 22 22 22 22 22 22 23 23 23 23 23 24 24 25 25 26 26 27 27 27 27 27 28 28 28
23 23 24 25 24 25 22 21 22 22 23 23 23 23 23 23 23 23 23 23 23 23 23 23 23 23 23 24 24 24 25 26 26 27 27 27 28 28 28 29 29 28 28 28
23 24 24 25 25 25 24 23 23 23 24 24 24 24 24 24 25 24 24 23 23 24 23 23 23 23 24 25 25 26 26 26 26 27 28 28 28 29 28 28 29 29 29 29
24 25 25 25 26 26 24 24 24 25 25 25 25 25 25 25 26 25 25 25 25 25 24 24 24 24 25 25 26 26 27 27 28 28 28 29 29 29 29 29 29 29 29 29
25 26 26 26 27 26 26 25 25 26 26 26 26 26 26 26 27 26 26 27 27 27 26 25 25 26 26 26 26 27 27 28 28 28 28 29 29 29 29 30 30 30 30 30
26 27 27 27 27 26 27 27 27 27 26 26 26 27 27 27 27 27 27 28 28 28 27 27 27 27 27 27 27 27 27 28 28 28 28 29 30 30 31 31 31 31 30 30
26 27 28 27 26 26 27 28 28 28 28 27 27 27 27 27 27 28 28 28 28 29 28 28 28 28 28 28 28 28 28 29 29 29 29 30 31 31 31 31 31 31 31 31
25 26 27 27 27 28 28 29 29 29 29 28 28 28 28 28 29 29 29 29 29 29 29 29 29 30 29 29 28 28 29 29 30 30 30 30 31 31 31 31 31 31 31 31
26 26 27 28 28 28 28 29 30 29 29 29 29 29 30 30 30 30 30 30 30 30 30 31 31 30 30 30 30 30 30 29 30 30 31 31 30 30 30 30 31 30 30 31
25 26 26 27 28 29 27 28 29 29 29 29 29 29 30 30 30 30 30 30 31 31 32 32 32 32 31 31 30 30 30 30 30 31 31 31 31 30 29 29 29 29 29 30
Wind_Direction
247 244 246 250 253 254 254 255 256 255 256 256 255 258 259 260 261 263 261 259 260 260 261 260 261 261 259 256 255 257 262 265 266 273 276 275 276 276 277 282 288 290 288 285
246 244 248 253 254 253 253 253 254 255 257 257 257 258 260 262 262 263 262 263 264 263 263 260 259 261 261 263 263 261 263 265 267 271 274 275 275 275 275 278 285 289 287 285
246 248 250 252 253 253 254 254 255 257 259 258 259 259 260 262 261 262 263 264 265 266 266 262 260 261 262 263 265 265 265 266 268 271 273 272 271 273 274 278 282 285 285 286
244 246 250 251 252 254 255 255 255 257 259 259 259 258 258 260 260 260 261 263 264 265 265 265 265 264 264 265 266 265 265 266 266 268 270 270 268 271 275 279 282 283 283 285
245 247 249 251 254 254 255 255 257 259 259 261 262 264 259 262 259 261 262 263 265 266 266 266 265 264 265 265 266 266 264 264 264 265 268 269 269 270 274 278 279 280 281 284
246 248 248 252 254 254 253 255 256 259 260 262 261 266 262 264 264 262 263 264 265 267 268 264 262 263 264 265 264 265 264 264 264 265 266 268 268 269 274 280 282 283 281 282
245 249 249 252 254 254 253 253 256 258 261 267 266 267 268 267 268 266 266 265 264 268 270 267 265 264 263 263 263 263 265 264 265 266 264 265 269 274 277 279 282 284 283 283
248 249 251 253 254 256 255 255 258 262 267 269 266 267 269 269 267 265 265 266 267 270 271 269 268 267 265 263 263 263 263 263 265 265 266 268 271 274 276 279 283 286 285 285
249 251 252 253 253 252 252 254 257 260 263 266 264 266 268 271 269 269 268 269 271 272 271 270 267 267 267 266 265 266 266 264 264 265 266 269 272 273 275 278 282 286 286 285
251 250 249 249 251 250 251 253 256 259 263 265 265 267 269 272 273 272 271 271 272 270 269 268 268 268 268 268 267 268 269 268 267 268 268 268 271 274 275 278 281 284 286 285
249 247 246 247 247 249 251 253 257 260 263 265 267 270 269 271 273 273 272 271 272 271 271 270 269 270 272 271 270 270 268 269 270 271 270 270 273 276 277 279 281 284 286 286
247 248 247 246 248 251 252 254 257 260 264 266 270 270 272 272 271 272 270 271 272 271 272 272 272 272 273 274 272 270 271 270 270 272 273 275 277 278 279 280 281 283 284 285
248 249 249 247 247 249 251 253 255 259 263 265 268 269 272 271 271 272 271 270 270 269 271 272 273 274 275 275 272 272 273 272 272 273 274 278 279 280 280 281 282 283 284 285
250 251 252 252 251 251 253 255 258 261 263 265 268 269 269 272 272 272 271 271 270 269 271 271 272 273 275 275 273 274 275 275 274 274 275 277 278 280 280 281 282 283 284 285
252 254 254 253 253 254 256 258 260 263 265 268 271 270 270 270 269 268 269 270 271 272 272 272 273 274 277 278 278 277 277 277 277 277 277 277 278 279 279 280 282 283 283 284
256 256 255 256 255 255 256 259 263 264 266 267 269 269 269 267 266 266 268 269 271 272 272 273 275 276 278 279 278 278 278 278 279 279 279 279 279 279 279 279 280 281 282 283
257 258 257 258 260 258 259 261 262 264 265 267 268 269 268 267 266 265 267 268 269 271 272 274 275 276 278 279 279 277 277 278 280 281 281 280 281 281 280 279 279 280 282 282
259 260 261 261 261 262 263 262 262 264 265 268 270 270 269 267 266 265 266 268 269 270 272 274 275 276 277 279 279 279 279 280 280 281 281 281 280 281 281 281 279 279 281 283
260 260 261 261 262 264 264 266 265 265 266 267 270 271 270 267 266 266 267 269 270 272 272 273 275 276 277 278 278 279 280 280 280 282 283 282 282 282 282 282 280 280 281 282
261 259 260 262 263 264 266 268 268 269 269 270 270 271 271 270 268 268 269 270 270 272 272 273 274 276 277 278 278 279 279 281 281 283 283 283 283 283 282 281 279 280 281 282
261 258 259 262 265 265 265 267 269 271 273 272 273 273 272 272 272 272 272 272 270 272 271 273 274 275 276 277 279 279 279 280 282 283 284 284 284 283 282 281 280 280 281 281
264 263 261 263 264 264 266 266 267 270 273 274 274 274 274 274 274 272 272 273 273 273 273 274 275 276 278 278 279 279 279 281 282 283 283 283 284 283 283 283 282 281 281 281
267 266 265 263 265 265 266 267 268 269 271 272 273 273 274 274 273 273 273 274 274 273 272 274 275 276 277 278 279 279 280 281 282 283 283 283 283 284 283 283 282 280 280 281
266 267 268 265 265 265 267 268 268 269 270 271 271 272 273 273 273 273 273 273 274 273 273 275 276 277 277 278 280 281 282 283 283 284 284 285 285 284 284 283 282 280 280 281
268 268 269 269 266 266 268 268 269 270 270 271 272 272 273 272 273 272 272 273 273 274 275 275 275 275 276 277 278 280 282 283 284 285 286 287 287 286 285 284 283 282 281 281
266 267 269 270 269 268 269 269 268 269 270 271 271 271 272 273 273 273 273 273 273 274 275 276 276 276 276 276 277 278 279 281 283 285 287 288 289 288 286 285 283 282 282 282
Height
5822 5824 5825 5826 5827 5828 5829 5829 5830 5830 5831 5832 5832 5833 5833 5833 5833 5833 5834 5834 5834 5833 5833 5833 5833 5834 5834 5834 5834 5834 5835 5834 5834 5834 5833 5833 5833 5832 5832 5831 5830 5829 5828 5827
5820 5821 5823 5823 5824 5825 5826 5827 5828 5828 5828 5829 5830 5830 5831 5831 5831 5831 5831 5831 5831 5831 5831 5831 5831 5831 5831 5831 5831 5831 5831 5831 5831 5831 5831 5830 5830 5829 5828 5828 5827 5826 5825 5824
5817 5820 5820 5821 5822 5822 5823 5824 5825 5826 5826 5827 5827 5828 5828 5828 5828 5828 5828 5828 5828 5828 5828 5828 5828 5828 5828 5828 5828 5828 5828 5828 5828 5828 5828 5827 5826 5826 5825 5824 5824 5823 5822 5821
5814 5816 5817 5818 5819 5820 5821 5821 5822 5822 5823 5824 5825 5825 5826 5825 5825 5825 5825 5825 5825 5825 5825 5825 5825 5825 5824 5825 5825 5825 5825 5825 5824 5824 5824 5824 5823 5823 5822 5821 5820 5820 5819 5818
5811 5813 5814 5815 5816 5817 5818 5818 5819 5819 5820 5821 5821 5822 5823 5822 5822 5822 5822 5822 5822 5822 5821 5821 5821 5821 5821 5821 5821 5821 5821 5821 5821 5821 5821 5820 5820 5819 5819 5818 5817 5816 5815 5814
5808 5809 5810 5812 5812 5813 5814 5815 5815 5816 5816 5818 5818 5818 5820 5819 5819 5818 5818 5818 5818 5818 5818 5817 5817 5817 5817 5817 5817 5817 5817 5817 5817 5817 5817 5817 5816 5815 5815 5814 5813 5812 5811 5811
5804 5805 5806 5808 5809 5810 5811 5812 5812 5812 5813 5814 5815 5815 5816 5816 5815 5815 5815 5814 5814 5814 5814 5813 5813 5813 5813 5813 5813 5813 5813 5813 5813 5813 5813 5813 5812 5811 5811 5810 5810 5808 5807 5806
5800 5802 5803 5804 5805 5806 5807 5808 5810 5810 5810 5811 5811 5811 5813 5812 5812 5811 5811 5811 5811 5811 5810 5810 5809 5809 5809 5809 5809 5809 5809 5809 5809 5809 5809 5808 5808 5807 5807 5806 5805 5804 5803 5802
5796 5798 5799 5800 5801 5803 5803 5804 5805 5806 5806 5807 5807 5808 5809 5809 5808 5808 5808 5808 5807 5807 5806 5806 5805 5805 5805 5805 5805 5804 5804 5804 5804 5804 5804 5804 5803 5802 5802 5801 5800 5799 5798 5797
5791 5793 5795 5796 5797 5799 5800 5800 5801 5802 5801 5802 5804 5804 5806 5805 5805 5805 5804 5804 5803 5803 5802 5802 5801 5801 5801 5800 5800 5800 5800 5799 5800 5799 5799 5799 5798 5797 5797 5796 5795 5794 5793 5791
5787 5789 5791 5792 5793 5794 5796 5797 5797 5797 5798 5798 5799 5802 5801 5801 5801 5801 5800 5800 5799 5798 5798 5797 5797 5797 5796 5796 5795 5795 5795 5794 5794 5794 5794 5794 5793 5792 5792 5791 5789 5788 5787 5786
5782 5784 5785 5787 5789 5789 5790 5792 5793 5793 5794 5794 5794 5798 5797 5796 5796 5796 5795 5795 5794 5794 5793 5793 5792 5792 5791 5791 5790 5790 5790 5789 5789 5789 5788 5788 5787 5787 5786 5785 5783 5782 5781 5779
5777 5779 5780 5782 5785 5785 5785 5786 5787 5788 5789 5789 5789 5793 5791 5791 5790 5790 5790 5790 5789 5789 5788 5787 5787 5787 5786 5785 5785 5784 5784 5783 5783 5783 5783 5782 5781 5780 5779 5778 5777 5775 5774 5772
5772 5773 5776 5778 5778 5779 5780 5781 5781 5782 5782 5783 5784 5785 5785 5785 5784 5785 5784 5784 5783 5783 5783 5782 5781 5781 5780 5780 5779 5778 5778 5777 5777 5777 5776 5775 5775 5773 5772 5771 5770 5768 5766 5765
5766 5768 5770 5771 5772 5773 5774 5775 5776 5776 5777 5778 5779 5779 5780 5779 5779 5779 5779 5778 5778 5778 5777 5777 5776 5775 5775 5774 5773 5773 5772 5771 5771 5770 5769 5768 5767 5766 5765 5764 5762 5761 5759 5758
5761 5762 5764 5766 5766 5767 5768 5769 5770 5771 5771 5772 5772 5773 5774 5773 5773 5773 5773 5773 5772 5772 5771 5770 5770 5769 5769 5768 5767 5767 5766 5765 5764 5763 5762 5761 5760 5758 5757 5756 5754 5753 5752 5750
5756 5757 5758 5760 5761 5761 5762 5764 5764 5764 5765 5766 5766 5768 5767 5766 5766 5767 5766 5766 5766 5765 5764 5764 5763 5763 5762 5762 5761 5760 5759 5758 5757 5756 5755 5753 5752 5751 5749 5748 5747 5745 5744 5743
5750 5751 5752 5753 5755 5754 5759 5758 5758 5758 5759 5759 5759 5759 5759 5760 5760 5760 5760 5759 5759 5759 5758 5757 5756 5756 5755 5754 5754 5753 5752 5751 5750 5748 5747 5746 5744 5743 5741 5740 5739 5737 5736 5734
5744 5745 5745 5746 5747 5748 5751 5752 5751 5751 5752 5752 5752 5752 5752 5752 5752 5752 5752 5752 5752 5752 5751 5750 5750 5749 5748 5747 5746 5745 5744 5743 5742 5741 5739 5737 5736 5734 5733 5731 5730 5729 5727 5726
5738 5738 5739 5740 5740 5742 5746 5745 5744 5745 5745 5746 5745 5745 5745 5745 5745 5746 5746 5745 5745 5744 5743 5743 5742 5742 5741 5740 5739 5738 5737 5735 5734 5733 5731 5729 5727 5726 5724 5723 5721 5720 5719 5717
5731 5732 5732 5733 5733 5735 5738 5737 5737 5738 5739 5738 5737 5737 5737 5737 5738 5739 5738 5737 5737 5736 5736 5735 5734 5734 5733 5732 5731 5730 5729 5727 5726 5724 5722 5721 5719 5717 5715 5714 5713 5711 5710 5709
5725 5725 5726 5726 5727 5731 5730 5730 5731 5731 5730 5730 5730 5729 5729 5730 5729 5729 5729 5729 5729 5728 5728 5727 5726 5726 5725 5724 5722 5721 5720 5719 5717 5716 5714 5712 5710 5709 5707 5705 5704 5702 5701 5700
5717 5719 5718 5720 5722 5722 5721 5722 5722 5722 5722 5722 5722 5722 5721 5721 5721 5721 5721 5721 5720 5720 5719 5718 5718 5717 5716 5715 5714 5713 5712 5710 5709 5707 5705 5704 5702 5700 5698 5696 5694 5693 5692 5690
5710 5710 5711 5712 5713 5713 5713 5713 5714 5714 5714 5714 5714 5714 5713 5713 5713 5712 5712 5712 5711 5711 5710 5710 5709 5708 5708 5707 5705 5704 5703 5701 5700 5698 5696 5694 5692 5690 5688 5686 5685 5684 5682 5681
5703 5703 5703 5704 5705 5705 5705 5705 5705 5706 5706 5705 5705 5705 5705 5704 5704 5704 5703 5703 5702 5702 5701 5701 5700 5699 5698 5698 5697 5695 5694 5692 5691 5689 5688 5686 5683 5681 5679 5677 5676 5674 5673 5672
5696 5695 5695 5696 5697 5697 5698 5697 5697 5697 5697 5697 5697 5697 5696 5695 5695 5694 5694 5694 5693 5692 5692 5691 5690 5689 5689 5688 5687 5686 5684 5683 5682 5680 5679 5677 5675 5673 5671 5669 5667 5665 5664 5663